Weather History for New Orleans Lakefront, LA

Change the Weather History Date:

Saturday, January 19, 2013

  Actual Average Record
Temperature  
Mean Temperature 52 °F 53 °F  
Max Temperature 65 °F 62 °F 80 °F (1982)
Min Temperature 39 °F 45 °F 19 °F (1977)
Degree Days  
Heating Degree Days 13 12  
Month to date heating degree days 209 228  
Since 1 July heating degree days 617 709  
Cooling Degree Days 0 0  
Month to date cooling degree days 16 12  
Year to date cooling degree days 16 12  
Growing Degree Days 7 (Base 50)    
Moisture  
Dew Point 44 °F    
Average Humidity 69    
Maximum Humidity 89    
Minimum Humidity 48    
Precipitation  
Precipitation 0.00 in 0.17 in 2.79 in (1963)
Month to date precipitation 5.73 3.12  
Year to date precipitation 5.73 3.12  
Snow  
Snow 0.00 in - - ()
Month to date snowfall 0.0  
Since 1 July snowfall 0.0  
Snow Depth 0.00 in    
Sea Level Pressure  
Sea Level Pressure 30.30 in    
Wind  
Wind Speed 6 mph (East)    
Max Wind Speed 12 mph    
Max Gust Speed 14 mph    
Visibility 10 miles    
Events      
T = Trace of Precipitation, MM = Missing Value Source: NWS Daily Summary

Daily Weather History Graph

Daily Weather History Graph

Search for Another Location

Airport:

Trip Planner

Search our weather history database for the weather conditions in past years. The results will help you decide how hot, cold, wet, or windy it might be!

Date:

Astronomy

Jan. 19, 2013 Rise Set
Actual Time 6:55 AM CST 5:26 PM CST
Civil Twilight 6:30 AM CST 5:51 PM CST
Nautical Twilight 6:01 AM CST 6:21 PM CST
Astronomical Twilight 5:32 AM CST 6:49 PM CST
Moon 11:47 AM CST (1/19) 12:36 AM CST (1/19)
Length of Visible Light 11h 21m
Length of Day
10h 30m
First Quarter, 57% of the Moon is Illuminated
Jan 19
First Quarter
Jan 26
Full
Feb 3
Last Quarter
Feb 10
New
Feb 17
First Quarter

Hourly Weather History & Observations

Time (CST) Temp. Dew Point Humidity Pressure Visibility Wind Dir Wind Speed Gust Speed Precip Events Conditions
12:53 AM 50.0 °F 42.1 °F 74% 30.38 in 10.0 mi NNE 3.5 mph - N/A   Mostly Cloudy
1:53 AM 52.0 °F 43.0 °F 71% 30.37 in 10.0 mi NNE 6.9 mph - N/A   Overcast
2:53 AM 52.0 °F 44.1 °F 74% 30.36 in 10.0 mi NNE 9.2 mph - N/A   Overcast
3:53 AM 51.1 °F 43.0 °F 74% 30.33 in 10.0 mi NE 15.0 mph - N/A   Partly Cloudy
4:53 AM 51.1 °F 43.0 °F 74% 30.33 in 10.0 mi ENE 17.3 mph - N/A   Clear
5:53 AM 51.1 °F 41.0 °F 68% 30.33 in 10.0 mi ENE 13.8 mph - N/A   Clear
6:53 AM 50.0 °F 41.0 °F 71% 30.34 in 10.0 mi ENE 11.5 mph - N/A   Clear
7:53 AM 52.0 °F 41.0 °F 66% 30.35 in 10.0 mi ENE 12.7 mph - N/A   Clear
8:53 AM 54.0 °F 41.0 °F 62% 30.36 in 10.0 mi ENE 10.4 mph - N/A   Clear
9:53 AM 55.9 °F 39.0 °F 53% 30.36 in 10.0 mi ENE 10.4 mph - N/A   Clear
10:53 AM 59.0 °F 41.0 °F 51% 30.36 in 10.0 mi ENE 8.1 mph - N/A   Mostly Cloudy
11:53 AM 59.0 °F 44.1 °F 58% 30.32 in 10.0 mi NE 6.9 mph - N/A   Clear
12:53 PM 60.1 °F 46.0 °F 60% 30.28 in 10.0 mi NNE 5.8 mph - N/A   Clear
1:53 PM 63.0 °F 46.0 °F 54% 30.26 in 10.0 mi ENE 6.9 mph - N/A   Clear
2:53 PM 64.9 °F 44.1 °F 47% 30.25 in 10.0 mi ESE 8.1 mph - N/A   Clear
3:53 PM 64.0 °F 45.0 °F 50% 30.25 in 10.0 mi ESE 6.9 mph - N/A   Clear
4:53 PM 62.1 °F 46.0 °F 56% 30.25 in 10.0 mi ESE 4.6 mph - N/A   Clear
5:53 PM 57.9 °F 46.0 °F 65% 30.25 in 10.0 mi ESE 5.8 mph - N/A   Clear
6:53 PM 57.0 °F 46.9 °F 69% 30.25 in 10.0 mi SE 4.6 mph - N/A   Clear
7:53 PM 55.0 °F 46.9 °F 74% 30.25 in 10.0 mi SE 5.8 mph - N/A   Clear
8:53 PM 55.0 °F 48.0 °F 77% 30.25 in 10.0 mi SE 4.6 mph - N/A   Clear
9:53 PM 54.0 °F 48.9 °F 83% 30.25 in 10.0 mi SE 5.8 mph - N/A   Clear
10:53 PM 53.6 °F 48.2 °F 82% 30.28 in 9.0 mi SSE 4.6 mph - N/A   Clear
11:53 PM 54.0 °F 48.0 °F 80% 30.25 in 8.0 mi Calm Calm - N/A   Clear